アトラス彗星

C/2019 T3 ( ATLAS )

English version
Home page
Updated on January 23, 2020

---------------------------------------------------------------------

・ プロフィール

発見日 2019年10月6日
発見光度 18.9等
発見者 Asteroid Terrestrial-Impact Last Alert System (ATLAS) search program

・ 写真集

・ 軌道要素

Epoch 2021 Mar. 7.0 TT = JDT 2459280.5
T 2021 Mar. 2.71161 TT                                  Williams
q   5.9463061            (2000.0)            P               Q
z  +0.0002604      Peri.  112.28027     +0.60548718     +0.57393068
 +/-0.0000121      Node   139.52102     -0.19754063     -0.56271829
e   0.9984519      Incl.  121.86229     +0.77094939     -0.59493840
From 143 observations 2019 Jan. 17-2020 Jan. 2, mean residual 0".4.

・ 光度変化

        m1 = -2.8 + 5 logΔ + 20.0 log r

---------------------------------------------------------------------

軌道要素はM.P.E.C. 2020-A105に掲載されたものです。
光度グラフはComet for Windowsで作成したものです。

---------------------------------------------------------------------

Copyright(C) Seiichi Yoshida (comet@aerith.net). All rights reserved.